Weather History for Olathe New Century, KS

Change the Weather History Date:

Saturday, October 6, 2012

  Actual Average Record
Temperature  
Mean Temperature 40 °F -  
Max Temperature 45 °F 69 °F 86 °F (1997)
Min Temperature 36 °F 47 °F 30 °F (2000)
Degree Days  
Heating Degree Days 24    
Moisture  
Dew Point 28 °F    
Average Humidity 59    
Maximum Humidity 83    
Minimum Humidity 40    
Precipitation  
Precipitation 0.00 in - - ()
Sea Level Pressure  
Sea Level Pressure 30.33 in    
Wind  
Wind Speed 7 mph (NW)    
Max Wind Speed 15 mph    
Max Gust Speed 20 mph    
Visibility 10 miles    
Events Snow    
Averages and records for this station are not official NWS values.
T = Trace of Precipitation, MM = Missing Value Source: NWS Daily Summary

Daily Weather History Graph

Daily Weather History Graph

Search for Another Location

Airport:

Trip Planner

Search our weather history database for the weather conditions in past years. The results will help you decide how hot, cold, wet, or windy it might be!

Date:

Astronomy

Oct. 06, 2012 Rise Set
Actual Time 7:20 AM CDT 6:53 PM CDT
Civil Twilight 6:54 AM CDT 7:20 PM CDT
Nautical Twilight 6:23 AM CDT 7:51 PM CDT
Astronomical Twilight 5:52 AM CDT 8:21 PM CDT
Moon 11:12 PM CDT (10/6) 1:13 PM CDT (10/6)
Length of Visible Light 12h 26m
Length of Day
11h 33m
Waning Gibbous, 65% of the Moon is Illuminated
Oct 6
Waning Gibbous
Oct 8
Last Quarter
Oct 15
New
Oct 21
First Quarter
Oct 29
Full

Hourly Weather History & Observations

Time (CDT) Temp. Windchill Dew Point Humidity Pressure Visibility Wind Dir Wind Speed Gust Speed Precip Events Conditions
12:53 AM 36.0 °F - 30.9 °F 82% 30.30 in 10.0 mi Calm Calm - N/A   Clear
1:53 AM 37.9 °F 33.5 °F 32.0 °F 79% 30.32 in 9.0 mi West 5.8 mph - 0.00 in Snow Light Snow
2:53 AM 39.9 °F 36.7 °F 35.1 °F 83% 30.32 in 10.0 mi West 4.6 mph - N/A   Overcast
3:53 AM 39.9 °F 36.7 °F 35.1 °F 83% 30.30 in 10.0 mi WNW 4.6 mph - N/A   Overcast
4:53 AM 41.0 °F 35.8 °F 34.0 °F 76% 30.31 in 10.0 mi NW 8.1 mph - N/A   Clear
5:53 AM 39.0 °F 32.8 °F 32.0 °F 76% 30.30 in 10.0 mi NNW 9.2 mph - N/A   Clear
6:53 AM 39.0 °F 33.4 °F 30.9 °F 73% 30.31 in 10.0 mi North 8.1 mph - N/A   Clear
7:53 AM 39.0 °F 32.3 °F 30.0 °F 70% 30.32 in 10.0 mi North 10.4 mph - N/A   Clear
9:53 AM 42.1 °F 35.2 °F 26.1 °F 53% 30.35 in 10.0 mi North 12.7 mph 19.6 mph N/A   Clear
10:53 AM 43.0 °F 35.7 °F 24.1 °F 47% 30.37 in 10.0 mi NNW 15.0 mph - N/A   Overcast
11:53 AM 44.1 °F 37.7 °F 21.9 °F 42% 30.37 in 10.0 mi North 12.7 mph - N/A   Overcast
12:53 PM 44.1 °F 37.4 °F 21.0 °F 40% 30.37 in 10.0 mi NNW 13.8 mph - N/A   Mostly Cloudy
1:53 PM 45.0 °F 39.3 °F 23.0 °F 42% 30.35 in 10.0 mi NNW 11.5 mph - N/A   Mostly Cloudy
2:53 PM 44.1 °F 40.1 °F 24.1 °F 45% 30.33 in 10.0 mi North 6.9 mph - N/A   Overcast
3:53 PM 43.0 °F 38.2 °F 24.1 °F 47% 30.32 in 10.0 mi NNW 8.1 mph - N/A   Mostly Cloudy
4:53 PM 44.1 °F 40.1 °F 25.0 °F 47% 30.30 in 10.0 mi NNW 6.9 mph - N/A   Mostly Cloudy
5:53 PM 44.1 °F 38.6 °F 25.0 °F 47% 30.30 in 10.0 mi North 10.4 mph - N/A   Overcast
6:53 PM 43.0 °F 37.7 °F 25.0 °F 49% 30.31 in 10.0 mi NNW 9.2 mph - N/A   Overcast
7:53 PM 42.1 °F 39.2 °F 26.1 °F 53% 30.32 in 10.0 mi NW 4.6 mph - N/A   Overcast
8:53 PM 42.1 °F 39.2 °F 27.0 °F 55% 30.33 in 10.0 mi WNW 4.6 mph - N/A   Overcast
9:53 PM 41.0 °F 38.0 °F 27.0 °F 57% 30.34 in 10.0 mi WNW 4.6 mph - N/A   Overcast
10:53 PM 41.0 °F 37.1 °F 27.0 °F 57% 30.33 in 10.0 mi WNW 5.8 mph - N/A   Overcast
11:53 PM 39.9 °F 34.5 °F 27.0 °F 60% 30.33 in 10.0 mi NW 8.1 mph - N/A   Overcast